{"data":{"norad_id":58273,"intl_designator":"2023-174T","name":"FLOCK 4Q-11","alt_names":[],"object_type":"PAYLOAD","status":"ACTIVE","operator":null,"country":"US","launch_date":"2023-11-11","launch_site_code":"AFWTR","launch_vehicle":null,"mission":null,"orbit_class":"UNKNOWN","rcs_meters":null,"size_class":null,"mass_kg":null,"dimensions":null,"purposes":["earth_obs"],"wikipedia_slug":null,"has_3d_model":false,"image_url":null,"decayed_at":null,"tle_current":{"epoch":"2026-05-25T05:12:43.215840Z","epoch_age_seconds":49671,"freshness":"FRESH","line1":"1 58273U 23174T   26145.21716685  .00021001  00000+0  39549-3 0  9992","line2":"2 58273  97.3873 233.3874 0005226 226.4559 133.6258 15.48537971142030","mean_motion":15.48537971,"eccentricity":0.0005226,"inclination_deg":97.3873,"raan_deg":233.3874,"arg_perigee_deg":226.4559,"mean_anomaly_deg":133.6258,"bstar":0.00039549,"rev_number":14203,"period_min":92.990938999713,"perigee_km":417.44901200774,"apogee_km":424.55547234366,"semimajor_km":6799.1392421757,"source":"CELESTRAK","updated_at":"2026-05-25T13:38:13.297891Z"}}}